This is the latest recevied weather packets stored in our database for station/object WD8INF-9. If no packets are shown the sender has not sent any weather packets the latest 10 day(s).
| Time | Temp. | Humidity | Pressure | Rain* | Wind** | Luminosity | Snow |
|---|---|---|---|---|---|---|---|
| 1778095265 | 16.11° C | - | 1011.3 hPa | 0 mm | - | - | - |
| 1778094964 | 16.67° C | - | 1011.2 hPa | 0 mm | - | - | - |
| 1778094664 | 16.67° C | - | 1011.4 hPa | 0 mm | - | - | - |
| 1778094363 | 15.56° C | - | 1011.2 hPa | 0 mm | - | - | - |
| 1778094063 | 15° C | - | 1011.3 hPa | 0 mm | - | - | - |
| 1778093763 | 15° C | - | 1010.9 hPa | 0 mm | - | - | - |
| 1778093462 | 15.56° C | - | 1011.2 hPa | 0 mm | - | - | - |
| 1778093159 | 16.67° C | - | 1010.9 hPa | 0 mm | - | - | - |
| 1778092559 | 16.67° C | - | 1010.8 hPa | 0 mm | - | - | - |
| 1778092258 | 16.67° C | - | 1011.3 hPa | 0 mm | - | - | - |
| 1778091958 | 17.22° C | - | 1011.2 hPa | 0 mm | - | - | - |
| 1778091657 | 17.78° C | - | 1011.3 hPa | 0 mm | - | - | - |
| 1778091357 | 17.22° C | - | 1011 hPa | 0 mm | - | - | - |
| 1778091057 | 16.67° C | - | 1010.8 hPa | 0 mm | - | - | - |
| 1778090757 | 20° C | - | 1011.2 hPa | 0 mm | - | - | - |
| 1778090457 | 20° C | - | 1011.2 hPa | 0 mm | - | - | - |
| 1778090156 | 18.89° C | - | 1011.6 hPa | 0 mm | - | - | - |
| 1778089856 | 18.33° C | - | 1011.5 hPa | 0 mm | - | - | - |
| 1778089556 | 18.89° C | - | 1011.4 hPa | 0 mm | - | - | - |
| 1778089255 | 18.33° C | - | 1011.4 hPa | 0 mm | - | - | - |
| 1778088955 | 17.78° C | - | 1011.6 hPa | 0 mm | - | - | - |
| 1778088655 | 18.33° C | - | 1011.2 hPa | 0 mm | - | - | - |
| 1778088354 | 17.22° C | - | 1011.6 hPa | 0 mm | - | - | - |
| 1778088054 | 17.78° C | - | 1011.3 hPa | 0 mm | - | - | - |
| 1778087752 | 16.67° C | - | 1011.7 hPa | 0 mm | - | - | - |
* Rain since midnight (hover to see other rain measurements)
** Current wind speed in m/s (hover to see current wind gust speed)